Weather History for Nassau, Bahamas

Change the Weather History Date:

Tuesday, January 21, 2014

  Actual Average Record
Temperature  
Mean Temperature 66 °F -  
Max Temperature 75 °F 78 °F 84 °F (2012)
Min Temperature 57 °F 62 °F 48 °F (1997)
Cooling Degree Days 1    
Growing Degree Days 16 (Base 50)    
Moisture  
Dew Point 58 °F    
Average Humidity 67    
Maximum Humidity 100    
Minimum Humidity 49    
Precipitation  
Precipitation 0.01 in 0.06 in - ()
Sea Level Pressure  
Sea Level Pressure 30.00 in    
Wind  
Wind Speed 4 mph ()    
Max Wind Speed 14 mph    
Max Gust Speed -    
Visibility 6.7 miles    
Events      
Averages and records for this station are not official NWS values.
T = Trace of Precipitation, MM = Missing Value Source: Averaged Metar Reports

Daily Weather History Graph

Daily Weather History Graph

Search for Another Location

Airport:

Trip Planner

Search our weather history database for the weather conditions in past years. The results will help you decide how hot, cold, wet, or windy it might be!

Date:

Astronomy

Jan. 21, 2014 Rise Set
Actual Time 6:56 AM EST 5:46 PM EST
Civil Twilight 6:31 AM EST 6:10 PM EST
Nautical Twilight 6:03 AM EST 6:38 PM EST
Astronomical Twilight 5:36 AM EST 7:06 PM EST
Moon 10:38 PM EST (1/21) 10:00 AM EST (1/21)
Length of Visible Light 11h 39m
Length of Day
10h 50m
Waning Gibbous, 75% of the Moon is Illuminated
Jan 21
Waning Gibbous
Jan 24
Last Quarter
Jan 30
New
Feb 6
First Quarter
Feb 14
Full

Hourly Weather History & Observations

Time (EST) Temp. Dew Point Humidity Pressure Visibility Wind Dir Wind Speed Gust Speed Precip Events Conditions
12:00 AM 64.4 °F 55.4 °F 73% 30.11 in 6.2 mi Calm Calm - N/A   Scattered Clouds
1:00 AM 62.6 °F 55.4 °F 77% 30.09 in 6.2 mi Calm Calm - N/A   Scattered Clouds
2:00 AM 62.6 °F 57.2 °F 82% 30.08 in - Calm Calm - N/A   Partly Cloudy
3:00 AM 62.6 °F 57.2 °F 82% 30.06 in 6.2 mi North - - N/A   Scattered Clouds
4:00 AM 60.8 °F 57.2 °F 88% 30.06 in 6.2 mi Calm Calm - N/A   Partly Cloudy
5:00 AM 59.0 °F 53.6 °F 82% 30.04 in 6.2 mi Calm Calm - N/A   Partly Cloudy
6:00 AM 60.8 °F 55.4 °F 82% 30.05 in 6.2 mi Calm Calm - N/A   Partly Cloudy
7:00 AM 57.2 °F 57.2 °F 100% 30.06 in 6.2 mi Calm Calm - N/A   Partly Cloudy
8:00 AM 62.6 °F 57.2 °F 82% 30.06 in 6.2 mi Calm Calm - N/A   Partly Cloudy
9:00 AM 69.8 °F 59.0 °F 68% 30.05 in 6.2 mi Calm Calm - N/A   Partly Cloudy
10:00 AM 74 °F 59 °F 50% 30.06 in 9 mi WSW 4.6 mph - -   Scattered Clouds
10:00 AM 73.4 °F 59.0 °F 61% 30.06 in 6.2 mi WSW 4.6 mph - N/A   Partly Cloudy
11:00 AM 73.4 °F 53.6 °F 50% 30.04 in 6.2 mi WSW 9.2 mph - N/A   Partly Cloudy
12:00 PM 73.4 °F 53.6 °F 50% 30.01 in 6.2 mi WSW 9.2 mph - N/A   Partly Cloudy
1:00 PM 75 °F 62 °F 55% 29.98 in 9 mi WSW 10.4 mph - -   Partly Cloudy
1:00 PM 75.2 °F 62.6 °F 65% 29.97 in 6.2 mi WSW 10.4 mph - N/A   Scattered Clouds
2:00 PM 73.4 °F 55.4 °F 53% 29.95 in 6.2 mi WSW 9.2 mph - N/A   Scattered Clouds
3:00 PM 75.2 °F 55.4 °F 50% 29.94 in 6.2 mi South 9.2 mph - N/A   Scattered Clouds
4:00 PM 77 °F 62 °F 49% 29.94 in 9 mi SW 11.5 mph - -   Partly Cloudy
4:00 PM 77.0 °F 60.8 °F 57% 29.93 in 6.2 mi SW 11.5 mph - N/A   Scattered Clouds
5:00 PM 75.2 °F 57.2 °F 53% 29.94 in 6.2 mi SSW 9.2 mph - N/A   Scattered Clouds
6:00 PM 73.4 °F 55.4 °F 53% 29.94 in 6.2 mi SSW 9.2 mph - N/A   Scattered Clouds
7:00 PM 71 °F 60 °F 59% 29.94 in 9 mi SSW 9.2 mph - -   Partly Cloudy
7:00 PM 71.6 °F 59.0 °F 64% 29.94 in 6.2 mi SSW 9.2 mph - N/A   Scattered Clouds
8:00 PM 69.8 °F 57.2 °F 64% 29.96 in 6.2 mi SW 13.8 mph - N/A   Scattered Clouds
9:00 PM 69.8 °F 55.4 °F 60% 29.96 in 6.2 mi SSW 13.8 mph - N/A   Mostly Cloudy
10:00 PM 71 °F 61 °F 63% 29.96 in 8 mi WSW 13.8 mph - -   Mostly Cloudy
10:00 PM 71.6 °F 60.8 °F 69% 29.96 in 6.2 mi WSW 13.8 mph - N/A   Mostly Cloudy
11:00 PM 66.2 °F 62.6 °F 88% 29.95 in 6.2 mi WSW 11.5 mph - N/A   Mostly Cloudy